Starlink 30935

operational
NORAD ID: 58455 Int'l Des: 2023-183 Owner: SPXS Country: US Constellation: starlink
LEOCIRCULAR

Starlink 30935について

説明を読み込み中...

リアルタイム位置

3D地球を読み込み中...

次回通過

高度履歴

Altitude vs Time

uPlot chart will show altitude changes over time

軌道要素

1 58455U 23183U 25304.71675999 -.00001097 00000-0 -66162-4 0 9995
2 58455 43.0022 24.0970 0001298 265.4957 94.5737 15.02533103107310
Epoch: Oct 31, 2025 • Age: 24 hours

現在のステータス

高度 558.5 km
速度 7.59 km/s
衛星直下点 14.53°N, 95.02°E
打ち上げ日 Nov 28, 2023
運用期間 1.9 years
タイプ internet

技術仕様

分類 Payload
質量 730.00 kg
乾燥質量 700.00 kg
総質量 730.00 kg
長さ 0.30 m
直径 4.10 m
スパン 29.00 m
形状 Box + pan
製造者 SPXS
バスタイプ Starlink V2M
フェーズステータス In Orbit
所有者/国 SPXS/US

大規模コンステレーション

Loading constellations...